• In Hungary
  • List of Countries
  • For 7 days
  • Water Temperature
  • Satellite Maps
  • Weather Map
  • News
  • Weather Widgets
  • user-avatar
    Login

    Hourly Weather Przasnysz

    Today, 20 September, Thursday

    Time Temperature Precipitation Wind Pressure Humidity
    00:00 +19°C° 0 mm 2 mps 753 mmHg 74%
    01:00 +19°C° 0 mm 2 mps 753 mmHg 75%
    02:00 +18°C° 0 mm 2 mps 753 mmHg 76%
    03:00 +19°C° 0 mm 1 mps 753 mmHg 76%
    04:00 +19°C° 0 mm 1 mps 753 mmHg 77%
    05:00 +19°C° 0 mm 2 mps 753 mmHg 75%
    06:00 +19°C° 0 mm 2 mps 753 mmHg 72%
    07:00 +20°C° 0 mm 2 mps 753 mmHg 66%
    08:00 +23°C° 0 mm 2 mps 753 mmHg 61%
    09:00 +25°C° 0 mm 3 mps 753 mmHg 55%
    10:00 +27°C° 0 mm 3 mps 753 mmHg 49%
    11:00 +28°C° 0 mm 3 mps 753 mmHg 46%
    12:00 +29°C° 0 mm 4 mps 753 mmHg 43%
    13:00 +30°C° 0 mm 4 mps 753 mmHg 40%
    14:00 +30°C° 0 mm 3 mps 753 mmHg 42%
    15:00 +29°C° 0 mm 3 mps 752 mmHg 43%
    16:00 +29°C° 0 mm 3 mps 752 mmHg 45%
    17:00 +27°C° 0 mm 2 mps 752 mmHg 50%
    18:00 +25°C° 0 mm 2 mps 752 mmHg 54%
    19:00 +24°C° 0 mm 2 mps 752 mmHg 59%
    20:00 +23°C° 0 mm 2 mps 752 mmHg 61%
    21:00 +21°C° 0 mm 2 mps 752 mmHg 62%
    22:00 +21°C° 0 mm 2 mps 752 mmHg 64%
    23:00 +20°C° 0 mm 2 mps 752 mmHg 65%

    Tomorrow, 21 September, Friday

    Time Temperature Precipitation Wind Pressure Humidity
    00:00 +20°C° 0 mm 2 mps 752 mmHg 67%
    01:00 +19°C° 0 mm 3 mps 752 mmHg 68%
    02:00 +19°C° 0 mm 3 mps 751 mmHg 68%
    03:00 +19°C° 0 mm 3 mps 751 mmHg 69%
    04:00 +18°C° 0 mm 3 mps 751 mmHg 70%
    05:00 +19°C° 0 mm 3 mps 751 mmHg 67%
    06:00 +19°C° 0 mm 3 mps 751 mmHg 64%
    07:00 +20°C° 0 mm 3 mps 751 mmHg 61%
    08:00 +22°C° 0 mm 4 mps 751 mmHg 55%
    09:00 +25°C° 0 mm 5 mps 750 mmHg 48%
    10:00 +27°C° 0 mm 5 mps 750 mmHg 42%
    11:00 +27°C° 0 mm 6 mps 749 mmHg 39%
    12:00 +28°C° 0 mm 6 mps 749 mmHg 37%
    13:00 +29°C° 0 mm 7 mps 748 mmHg 34%
    14:00 +28°C° 0 mm 6 mps 747 mmHg 36%
    15:00 +28°C° 0 mm 6 mps 747 mmHg 37%
    16:00 +28°C° 0 mm 5 mps 746 mmHg 39%
    17:00 +26°C° 0 mm 5 mps 746 mmHg 42%
    18:00 +25°C° 0 mm 5 mps 745 mmHg 45%
    19:00 +23°C° 0 mm 6 mps 745 mmHg 48%
    20:00 +22°C° 0 mm 6 mps 745 mmHg 49%
    21:00 +22°C° 0 mm 6 mps 745 mmHg 50%
    22:00 +22°C° 0 mm 6 mps 745 mmHg 51%
    23:00 +20°C° 0.5 mm 6 mps 745 mmHg 62%

    Day after tomorrow, 22 September, Saturday

    Time Temperature Precipitation Wind Pressure Humidity
    00:00 +17°C° 0.5 mm 7 mps 746 mmHg 72%
    01:00 +15°C° 0.5 mm 7 mps 747 mmHg 82%
    02:00 +14°C° 0.4 mm 6 mps 748 mmHg 81%
    03:00 +13°C° 0.4 mm 5 mps 748 mmHg 79%
    04:00 +12°C° 0.4 mm 4 mps 749 mmHg 78%
    05:00 +12°C° 0 mm 5 mps 750 mmHg 75%
    06:00 +12°C° 0 mm 5 mps 750 mmHg 72%
    07:00 +10°C° 0 mm 6 mps 751 mmHg 69%
    08:00 +11°C° 0 mm 6 mps 751 mmHg 63%
    09:00 +13°C° 0 mm 6 mps 751 mmHg 58%
    10:00 +14°C° 0 mm 7 mps 751 mmHg 52%
    11:00 +15°C° 0 mm 7 mps 751 mmHg 50%
    12:00 +16°C° 0 mm 6 mps 751 mmHg 47%
    13:00 +17°C° 0 mm 6 mps 751 mmHg 44%
    14:00 +17°C° 0.1 mm 6 mps 751 mmHg 45%
    15:00 +16°C° 0.1 mm 6 mps 751 mmHg 47%
    16:00 +16°C° 0.1 mm 6 mps 751 mmHg 49%
    17:00 +15°C° 0.1 mm 5 mps 751 mmHg 52%
    18:00 +14°C° 0.1 mm 4 mps 751 mmHg 55%
    19:00 +13°C° 0.1 mm 4 mps 751 mmHg 58%
    20:00 +12°C° 0 mm 4 mps 751 mmHg 61%
    21:00 +12°C° 0 mm 4 mps 751 mmHg 64%
    22:00 +11°C° 0 mm 4 mps 751 mmHg 67%
    23:00 +11°C° 0 mm 4 mps 751 mmHg 69%

    23 September, Sunday

    Time Temperature Precipitation Wind Pressure Humidity
    00:00 +10°C° 0 mm 4 mps 751 mmHg 72%
    01:00 +10°C° 0 mm 4 mps 751 mmHg 75%
    02:00 +10°C° 0 mm 4 mps 751 mmHg 76%
    03:00 +8°C° 0 mm 4 mps 751 mmHg 78%
    04:00 +8°C° 0 mm 4 mps 751 mmHg 80%
    05:00 +8°C° 0 mm 4 mps 751 mmHg 77%
    06:00 +9°C° 0 mm 5 mps 751 mmHg 74%
    07:00 +9°C° 0 mm 5 mps 751 mmHg 72%
    08:00 +12°C° 0 mm 5 mps 751 mmHg 64%
    09:00 +13°C° 0 mm 6 mps 751 mmHg 57%
    10:00 +15°C° 0 mm 6 mps 751 mmHg 50%
    11:00 +15°C° 0 mm 6 mps 750 mmHg 51%
    12:00 +15°C° 0 mm 6 mps 750 mmHg 52%
    13:00 +15°C° 0 mm 5 mps 749 mmHg 52%
    14:00 +14°C° 0.6 mm 4 mps 748 mmHg 61%
    15:00 +13°C° 0.6 mm 3 mps 748 mmHg 70%
    16:00 +13°C° 0.6 mm 2 mps 747 mmHg 78%
    17:00 +11°C° 0.6 mm 3 mps 746 mmHg 81%
    18:00 +11°C° 0.6 mm 4 mps 744 mmHg 85%
    19:00 +10°C° 0.6 mm 5 mps 743 mmHg 88%
    20:00 +12°C° 2.2 mm 5 mps 742 mmHg 89%
    21:00 +11°C° 2.2 mm 6 mps 740 mmHg 90%
    22:00 +12°C° 2.2 mm 7 mps 738 mmHg 91%
    23:00 +14°C° 3.2 mm 7 mps 737 mmHg 91%

    24 September, Monday

    Time Temperature Precipitation Wind Pressure Humidity
    00:00 +15°C° 3.2 mm 8 mps 736 mmHg 91%
    01:00 +16°C° 3.2 mm 8 mps 734 mmHg 91%
    02:00 +16°C° 0.5 mm 8 mps 734 mmHg 90%
    03:00 +16°C° 0.5 mm 8 mps 734 mmHg 89%
    04:00 +16°C° 0.5 mm 8 mps 733 mmHg 88%
    05:00 +13°C° 0.3 mm 8 mps 735 mmHg 87%
    06:00 +11°C° 0.3 mm 9 mps 736 mmHg 86%
    07:00 +9°C° 0.3 mm 10 mps 737 mmHg 85%
    08:00 +9°C° 0.2 mm 10 mps 739 mmHg 82%
    09:00 +9°C° 0.2 mm 10 mps 740 mmHg 80%
    10:00 +9°C° 0.2 mm 10 mps 742 mmHg 77%
    11:00 +9°C° 0.3 mm 10 mps 743 mmHg 74%
    12:00 +11°C° 0.3 mm 9 mps 744 mmHg 72%
    13:00 +11°C° 0.3 mm 9 mps 745 mmHg 69%
    14:00 +11°C° 0.4 mm 9 mps 746 mmHg 71%
    15:00 +10°C° 0.4 mm 9 mps 748 mmHg 73%
    16:00 +8°C° 0.4 mm 9 mps 749 mmHg 75%
    17:00 +7°C° 0 mm 8 mps 750 mmHg 74%
    18:00 +8°C° 0 mm 7 mps 751 mmHg 74%
    19:00 +7°C° 0 mm 6 mps 752 mmHg 74%
    20:00 +7°C° 0 mm 6 mps 753 mmHg 73%
    21:00 +6°C° 0 mm 5 mps 754 mmHg 73%
    22:00 +6°C° 0 mm 5 mps 754 mmHg 72%
    23:00 +6°C° 0 mm 5 mps 755 mmHg 73%

    25 September, Tuesday

    Time Temperature Precipitation Wind Pressure Humidity
    00:00 +5°C° 0 mm 5 mps 755 mmHg 73%
    01:00 +5°C° 0 mm 5 mps 756 mmHg 73%
    02:00 +5°C° 0 mm 5 mps 756 mmHg 74%
    03:00 +5°C° 0 mm 5 mps 756 mmHg 75%
    04:00 +5°C° 0 mm 4 mps 757 mmHg 76%
    05:00 +5°C° 0 mm 5 mps 757 mmHg 76%
    06:00 +6°C° 0 mm 5 mps 757 mmHg 75%
    07:00 +6°C° 0 mm 5 mps 757 mmHg 75%
    08:00 +7°C° 0.1 mm 6 mps 757 mmHg 72%
    09:00 +9°C° 0.1 mm 6 mps 757 mmHg 68%
    10:00 +10°C° 0.1 mm 7 mps 757 mmHg 65%
    11:00 +11°C° 0.2 mm 7 mps 757 mmHg 63%
    12:00 +11°C° 0.2 mm 8 mps 756 mmHg 61%
    13:00 +12°C° 0.2 mm 8 mps 756 mmHg 59%
    14:00 +10°C° 1.6 mm 8 mps 755 mmHg 68%
    15:00 +9°C° 1.6 mm 8 mps 754 mmHg 77%
    16:00 +7°C° 1.6 mm 8 mps 754 mmHg 86%
    17:00 +8°C° 0.2 mm 7 mps 754 mmHg 83%
    18:00 +7°C° 0.2 mm 6 mps 754 mmHg 80%
    19:00 +7°C° 0.2 mm 5 mps 754 mmHg 77%
    20:00 +7°C° 0 mm 5 mps 755 mmHg 79%
    21:00 +6°C° 0 mm 5 mps 755 mmHg 80%
    22:00 +6°C° 0 mm 5 mps 756 mmHg 81%
    23:00 +6°C° 0 mm 4 mps 756 mmHg 82%
    Show more